| time (UTC) | temp F | wind direction | speed knots | gust knots | rain 1hr in | rain 24hr in | rain mn in | humidity % | barometer mb |
| 20260507012936 | 65 | 260 | 7.8 | 13.9 | 0.00 | 0.00 | 0.00 | 68 | 1019.7 |
| 20260507012436 | 65 | 227 | 7.8 | 13.0 | 0.00 | 0.00 | 0.00 | 69 | 1019.7 |
| 20260507011937 | 65 | 260 | 7.8 | 13.0 | 0.00 | 0.00 | 0.00 | 68 | 1019.7 |
| 20260507011926 | 66 | 282 | 7.8 | 12.2 | 0.00 | 0.00 | 0.00 | 67 | 1019.7 |
| 20260507010934 | 66 | 227 | 7.8 | 13.0 | 0.00 | 0.00 | 0.00 | 67 | 1019.7 |
| 20260507010434 | 66 | 297 | 8.7 | 13.0 | 0.00 | 0.00 | 0.00 | 67 | 1019.7 |
| 20260507005935 | 67 | 260 | 8.7 | 13.9 | 0.00 | 0.00 | 0.00 | 67 | 1019.6 |
| 20260507005435 | 67 | 265 | 8.7 | 13.9 | 0.00 | 0.00 | 0.00 | 66 | 1019.6 |
| 20260507004932 | 68 | 270 | 8.7 | 13.0 | 0.00 | 0.00 | 0.00 | 66 | 1019.6 |
| 20260507004433 | 68 | 249 | 8.7 | 13.0 | 0.00 | 0.00 | 0.00 | 64 | 1019.5 |
| 20260507003931 | 68 | 243 | 8.7 | 14.8 | 0.00 | 0.00 | 0.00 | 65 | 1019.5 |
| 20260507003423 | 69 | 230 | 9.6 | 14.8 | 0.00 | 0.00 | 0.00 | 65 | 1019.4 |
| 20260507003149 | 69 | 233 | 9.6 | 13.9 | 0.00 | 0.00 | 0.00 | 65 | 1019.5 |
| 20260507002424 | 69 | 241 | 9.6 | 13.9 | 0.00 | 0.00 | 0.00 | 64 | 1019.5 |
| 20260507001920 | 69 | 203 | 9.6 | 14.8 | 0.00 | 0.00 | 0.00 | 64 | 1019.4 |
| 20260507001647 | 69 | 248 | 8.7 | 14.8 | 0.00 | 0.00 | 0.00 | 64 | 1019.5 |
| 20260507000918 | 69 | 241 | 8.7 | 14.8 | 0.00 | 0.00 | 0.00 | 65 | 1019.5 |
| 20260507000417 | 70 | 250 | 7.8 | 13.9 | 0.00 | 0.00 | 0.00 | 64 | 1019.4 |
| 20260506235916 | 70 | 249 | 8.7 | 14.8 | 0.00 | 0.00 | 0.00 | 64 | 1019.5 |
| 20260506235631 | 70 | 275 | 9.6 | 14.8 | 0.00 | 0.00 | 0.00 | 63 | 1019.3 |
| 20260506234904 | 70 | 226 | 8.7 | 13.9 | 0.00 | 0.00 | 0.00 | 63 | 1019.4 |
| 20260506234403 | 71 | 235 | 7.8 | 12.2 | 0.00 | 0.00 | 0.00 | 62 | 1019.3 |
| 20260506233902 | 71 | 258 | 7.8 | 11.3 | 0.00 | 0.00 | 0.00 | 62 | 1019.3 |
| 20260506233403 | 72 | 235 | 7.0 | 11.3 | 0.00 | 0.00 | 0.00 | 61 | 1019.4 |
| 20260506232902 | 71 | 231 | 7.0 | 11.3 | 0.00 | 0.00 | 0.00 | 61 | 1019.3 |
| 20260506232400 | 71 | 227 | 6.1 | 12.2 | 0.00 | 0.00 | 0.00 | 61 | 1019.3 |
| 20260506231859 | 71 | 219 | 7.0 | 12.2 | 0.00 | 0.00 | 0.00 | 60 | 1019.3 |
| 20260506231627 | 71 | 230 | 7.0 | 12.2 | 0.00 | 0.00 | 0.00 | 61 | 1019.3 |
| 20260506230857 | 71 | 246 | 7.0 | 12.2 | 0.00 | 0.00 | 0.00 | 62 | 1019.5 |
| 20260506230358 | 71 | 201 | 7.0 | 11.3 | 0.00 | 0.00 | 0.00 | 61 | 1019.3 |
| 20260506225858 | 71 | 218 | 7.8 | 11.3 | 0.00 | 0.00 | 0.00 | 62 | 1019.3 |
| 20260506225623 | 71 | 265 | 7.8 | 13.0 | 0.00 | 0.00 | 0.00 | 62 | 1019.3 |
| 20260506224859 | 71 | 226 | 7.8 | 13.0 | 0.00 | 0.00 | 0.00 | 61 | 1019.4 |
| 20260506224354 | 71 | 235 | 7.8 | 12.2 | 0.00 | 0.00 | 0.00 | 63 | 1019.4 |
| 20260506223854 | 71 | 231 | 7.8 | 12.2 | 0.00 | 0.00 | 0.00 | 63 | 1019.6 |
| 20260506223352 | 71 | 241 | 7.0 | 12.2 | 0.00 | 0.00 | 0.00 | 61 | 1019.7 |
| 20260506222852 | 71 | 224 | 7.0 | 13.0 | 0.00 | 0.00 | 0.00 | 63 | 1019.7 |
| 20260506222353 | 71 | 235 | 7.8 | 13.0 | 0.00 | 0.00 | 0.00 | 61 | 1019.7 |
| 20260506221851 | 71 | 222 | 7.8 | 11.3 | 0.00 | 0.00 | 0.00 | 62 | 1019.8 |
| 20260506221347 | 71 | 239 | 7.0 | 11.3 | 0.00 | 0.00 | 0.00 | 64 | 1019.8 |
| 20260506220848 | 71 | 290 | 6.1 | 10.4 | 0.00 | 0.00 | 0.00 | 62 | 1019.8 |
| 20260506220607 | 71 | 242 | 6.1 | 10.4 | 0.00 | 0.00 | 0.00 | 62 | 1019.9 |
| 20260506215847 | 71 | 299 | 7.0 | 12.2 | 0.00 | 0.00 | 0.00 | 65 | 1019.9 |
| 20260506215609 | 70 | 224 | 7.8 | 12.2 | 0.00 | 0.00 | 0.00 | 63 | 1019.9 |
| 20260506214848 | 70 | 232 | 7.0 | 11.3 | 0.00 | 0.00 | 0.00 | 65 | 1019.9 |
| 20260506214349 | 71 | 236 | 6.1 | 11.3 | 0.00 | 0.00 | 0.00 | 63 | 1020.0 |
| 20260506213846 | 71 | 230 | 5.2 | 11.3 | 0.00 | 0.00 | 0.00 | 65 | 1020.1 |
| 20260506213608 | 70 | 243 | 7.0 | 12.2 | 0.00 | 0.00 | 0.00 | 66 | 1020.1 |
| 20260506212848 | 70 | 225 | 7.0 | 12.2 | 0.00 | 0.00 | 0.00 | 65 | 1020.2 |
| 20260506212344 | 70 | 261 | 6.1 | 12.2 | 0.00 | 0.00 | 0.00 | 66 | 1020.3 |
| 20260506211842 | 70 | 246 | 5.2 | 10.4 | 0.00 | 0.00 | 0.00 | 68 | 1020.4 |
| 20260506211345 | 69 | 243 | 7.0 | 11.3 | 0.00 | 0.00 | 0.00 | 67 | 1020.3 |
| 20260506210842 | 69 | 252 | 7.0 | 11.3 | 0.00 | 0.00 | 0.00 | 69 | 1020.3 |
| 20260506210341 | 69 | 215 | 6.1 | 10.4 | 0.00 | 0.00 | 0.00 | 67 | 1020.2 |
| 20260506205840 | 69 | 239 | 6.1 | 9.6 | 0.00 | 0.00 | 0.00 | 66 | 1020.3 |
| 20260506205341 | 69 | 247 | 6.1 | 10.4 | 0.00 | 0.00 | 0.00 | 67 | 1020.2 |
| 20260506204841 | 69 | 227 | 5.2 | 10.4 | 0.00 | 0.00 | 0.00 | 67 | 1020.3 |
| 20260506204340 | 69 | 250 | 5.2 | 10.4 | 0.00 | 0.00 | 0.00 | 71 | 1020.2 |
| 20260506203840 | 67 | 171 | 6.1 | 9.6 | 0.00 | 0.00 | 0.00 | 70 | 1020.2 |
| 20260506203341 | 67 | 219 | 7.0 | 9.6 | 0.00 | 0.00 | 0.00 | 68 | 1020.2 |
| 20260506202841 | 67 | 248 | 7.0 | 9.6 | 0.00 | 0.00 | 0.00 | 71 | 1020.4 |
| 20260506202341 | 67 | 223 | 7.0 | 10.4 | 0.00 | 0.00 | 0.00 | 70 | 1020.5 |
| 20260506201832 | 67 | 212 | 5.2 | 10.4 | 0.00 | 0.00 | 0.00 | 71 | 1020.6 |
| 20260506201334 | 66 | 227 | 4.3 | 7.0 | 0.00 | 0.00 | 0.00 | 72 | 1020.6 |
| 20260506200832 | 66 | 250 | 2.6 | 7.0 | 0.00 | 0.00 | 0.00 | 72 | 1020.7 |
| 20260506200323 | 64 | 203 | 2.6 | 7.0 | 0.00 | 0.00 | 0.00 | 73 | 1020.7 |
| 20260506195826 | 65 | 235 | 4.3 | 7.8 | 0.00 | 0.00 | 0.00 | 77 | 1020.9 |
| 20260506195325 | 64 | 215 | 5.2 | 9.6 | 0.00 | 0.00 | 0.00 | 74 | 1020.9 |
| 20260506194819 | 65 | 232 | 6.1 | 9.6 | 0.00 | 0.00 | 0.00 | 74 | 1020.8 |
| 20260506194319 | 64 | 226 | 4.3 | 8.7 | 0.00 | 0.00 | 0.00 | 76 | 1020.9 |
| 20260506193816 | 64 | 281 | 3.5 | 7.8 | 0.00 | 0.00 | 0.00 | 76 | 1020.9 |
| 20260506193307 | 64 | 280 | 2.6 | 7.0 | 0.00 | 0.00 | 0.00 | 75 | 1020.8 |
| 20260506192807 | 63 | 231 | 3.5 | 8.7 | 0.00 | 0.00 | 0.00 | 76 | 1020.8 |
| 20260506192307 | 63 | 204 | 4.3 | 8.7 | 0.00 | 0.00 | 0.00 | 77 | 1020.8 |
| 20260506191807 | 62 | 225 | 4.3 | 7.8 | 0.00 | 0.00 | 0.00 | 76 | 1020.9 |
| 20260506191532 | 63 | 230 | 2.6 | 7.8 | 0.00 | 0.00 | 0.00 | 78 | 1021.0 |
| 20260506191244 | 62 | 239 | 2.6 | 7.0 | 0.00 | 0.00 | 0.00 | 80 | 1021.1 |
| 20260506190307 | 62 | 177 | 2.6 | 6.1 | 0.00 | 0.00 | 0.00 | 79 | 1021.0 |
| 20260506185754 | 61 | 201 | 1.7 | 4.3 | 0.00 | 0.00 | 0.00 | 79 | 1021.1 |
| 20260506185256 | 61 | 209 | 1.7 | 7.0 | 0.00 | 0.00 | 0.00 | 82 | 1021.1 |
| 20260506184755 | 62 | 230 | 1.7 | 7.0 | 0.00 | 0.00 | 0.00 | 81 | 1021.0 |
| 20260506184252 | 61 | 200 | 1.7 | 4.3 | 0.00 | 0.00 | 0.00 | 80 | 1021.1 |
| 20260506183752 | 60 | 300 | 2.6 | 4.3 | 0.00 | 0.00 | 0.00 | 82 | 1021.0 |
| 20260506183511 | 60 | 289 | 2.6 | 6.1 | 0.00 | 0.00 | 0.00 | 80 | 1021.1 |
| 20260506182749 | 61 | 210 | 3.5 | 6.1 | 0.00 | 0.00 | 0.00 | 81 | 1021.1 |
| 20260506182250 | 61 | 265 | 2.6 | 5.2 | 0.00 | 0.00 | 0.00 | 81 | 1021.1 |
| 20260506182238 | 60 | 275 | 2.6 | 5.2 | 0.00 | 0.00 | 0.00 | 82 | 1021.1 |
| 20260506181250 | 60 | 221 | 2.6 | 5.2 | 0.00 | 0.00 | 0.00 | 81 | 1021.0 |
| 20260506180743 | 60 | 235 | 2.6 | 5.2 | 0.00 | 0.00 | 0.00 | 82 | 1021.0 |
| 20260506180242 | 60 | 206 | 2.6 | 4.3 | 0.00 | 0.00 | 0.00 | 83 | 1021.0 |
| 20260506175745 | 59 | 237 | 1.7 | 5.2 | 0.00 | 0.00 | 0.00 | 84 | 1021.1 |
| 20260506175237 | 59 | 279 | 1.7 | 5.2 | 0.00 | 0.00 | 0.00 | 86 | 1021.0 |
| 20260506174738 | 59 | 196 | 1.7 | 3.5 | 0.00 | 0.00 | 0.00 | 86 | 1021.1 |
| 20260506174235 | 58 | 149 | 1.7 | 3.5 | 0.00 | 0.00 | 0.00 | 84 | 1021.0 |
| 20260506173730 | 58 | 238 | 1.7 | 3.5 | 0.00 | 0.00 | 0.00 | 86 | 1021.1 |
| 20260506173223 | 57 | 195 | 1.7 | 3.5 | 0.00 | 0.00 | 0.00 | 86 | 1021.0 |
| 20260506172710 | 57 | 149 | 1.7 | 3.5 | 0.00 | 0.00 | 0.00 | 87 | 1020.9 |
| 20260506172204 | 57 | 218 | 1.7 | 3.5 | 0.00 | 0.00 | 0.00 | 86 | 1020.8 |
| 20260506171706 | 57 | 283 | 1.7 | 3.5 | 0.00 | 0.00 | 0.00 | 87 | 1020.9 |
| 20260506171203 | 56 | 216 | 1.7 | 3.5 | 0.00 | 0.00 | 0.00 | 88 | 1020.9 |
| 20260506170920 | 57 | 158 | 1.7 | 4.3 | 0.00 | 0.00 | 0.00 | 87 | 1020.8 |
| 20260506170203 | 57 | 287 | 1.7 | 4.3 | 0.00 | 0.00 | 0.00 | 88 | 1020.8 |
| 20260506165701 | 56 | 218 | 1.7 | 3.5 | 0.00 | 0.00 | 0.00 | 90 | 1020.8 |
| 20260506165202 | 56 | 161 | 1.7 | 3.5 | 0.00 | 0.00 | 0.00 | 89 | 1020.7 |
| 20260506164701 | 55 | 133 | 2.6 | 5.2 | 0.00 | 0.00 | 0.00 | 90 | 1020.7 |
| 20260506164205 | 55 | 158 | 2.6 | 5.2 | 0.00 | 0.00 | 0.00 | 90 | 1020.8 |
| 20260506163655 | 55 | 181 | 2.6 | 5.2 | 0.00 | 0.00 | 0.00 | 90 | 1020.9 |
| 20260506163150 | 55 | 137 | 1.7 | 3.5 | 0.00 | 0.00 | 0.00 | 91 | 1021.0 |
| 20260506162643 | 54 | 129 | 0.9 | 3.5 | 0.00 | 0.00 | 0.00 | 92 | 1021.0 |
| 20260506162144 | 54 | 135 | 0.9 | 3.5 | 0.00 | 0.00 | 0.00 | 92 | 1021.0 |
| 20260506161635 | 54 | 223 | 0.9 | 2.6 | 0.00 | 0.00 | 0.00 | 92 | 1021.1 |
| 20260506161122 | 54 | 187 | 0.9 | 2.6 | 0.00 | 0.00 | 0.00 | 93 | 1021.1 |
| 20260506160605 | 53 | 189 | 1.7 | 3.5 | 0.00 | 0.00 | 0.00 | 92 | 1021.0 |
| 20260506160058 | 53 | 187 | 1.7 | 3.5 | 0.00 | 0.00 | 0.00 | 93 | 1021.0 |
| 20260506155552 | 53 | 177 | 2.6 | 4.3 | 0.00 | 0.00 | 0.00 | 93 | 1021.1 |
| 20260506155055 | 53 | 215 | 3.5 | 5.2 | 0.00 | 0.00 | 0.00 | 92 | 1021.3 |
| 20260506154551 | 53 | 227 | 2.6 | 7.0 | 0.00 | 0.00 | 0.00 | 92 | 1021.1 |
| 20260506154541 | 53 | 181 | 2.6 | 7.0 | 0.00 | 0.00 | 0.00 | 92 | 1021.1 |
| 20260506153550 | 53 | 205 | 2.6 | 5.2 | 0.00 | 0.00 | 0.00 | 91 | 1021.1 |
| 20260506153043 | 53 | 230 | 3.5 | 7.0 | 0.00 | 0.00 | 0.00 | 91 | 1021.0 |
| 20260506152737 | 53 | 196 | 3.5 | 7.8 | 0.00 | 0.00 | 0.00 | 91 | 1020.8 |
| 20260506152628 | 53 | 200 | 4.3 | 7.8 | 0.00 | 0.00 | 0.00 | 91 | 1021.0 |
| 20260506151542 | 53 | 197 | 3.5 | 6.1 | 0.00 | 0.00 | 0.00 | 91 | 1020.8 |
| 20260506151044 | 53 | 145 | 2.6 | 6.1 | 0.00 | 0.00 | 0.00 | 91 | 1020.7 |
| 20260506150540 | 53 | 191 | 2.6 | 6.1 | 0.00 | 0.00 | 0.00 | 91 | 1020.7 |
| 20260506150040 | 53 | 167 | 2.6 | 6.1 | 0.00 | 0.00 | 0.00 | 91 | 1020.7 |
| 20260506145757 | 52 | 206 | 3.5 | 7.0 | 0.00 | 0.00 | 0.00 | 91 | 1020.7 |
| 20260506145042 | 52 | 149 | 3.5 | 7.0 | 0.00 | 0.00 | 0.00 | 91 | 1020.7 |
| 20260506144538 | 53 | 177 | 4.3 | 7.8 | 0.00 | 0.00 | 0.00 | 91 | 1020.6 |
| 20260506144037 | 53 | 179 | 4.3 | 7.8 | 0.00 | 0.00 | 0.00 | 90 | 1020.6 |
| 20260506143802 | 53 | 162 | 2.6 | 5.2 | 0.00 | 0.00 | 0.00 | 91 | 1020.4 |
| 20260506143037 | 53 | 189 | 1.7 | 5.2 | 0.00 | 0.00 | 0.00 | 91 | 1020.4 |
| 20260506142537 | 53 | 196 | 2.6 | 5.2 | 0.00 | 0.00 | 0.00 | 91 | 1020.4 |
| 20260506142257 | 52 | 181 | 2.6 | 6.1 | 0.00 | 0.00 | 0.00 | 91 | 1020.3 |
| 20260506141536 | 52 | 156 | 3.5 | 7.0 | 0.00 | 0.00 | 0.00 | 91 | 1020.2 |
| 20260506141257 | 52 | 153 | 3.5 | 7.0 | 0.00 | 0.00 | 0.00 | 91 | 1020.3 |
| 20260506140532 | 52 | 143 | 2.6 | 6.1 | 0.00 | 0.00 | 0.00 | 91 | 1020.3 |
| 20260506140029 | 52 | 189 | 2.6 | 6.1 | 0.00 | 0.00 | 0.00 | 91 | 1020.4 |
| 20260506135521 | 52 | 157 | 2.6 | 5.2 | 0.00 | 0.00 | 0.00 | 92 | 1020.4 |
| 20260506135505 | 52 | 161 | 2.6 | 5.2 | 0.00 | 0.00 | 0.00 | 92 | 1020.4 |
| 20260506134742 | 51 | 146 | 3.5 | 6.1 | 0.00 | 0.00 | 0.00 | 92 | 1020.2 |
| 20260506134009 | 51 | 148 | 3.5 | 6.1 | 0.00 | 0.00 | 0.00 | 92 | 1020.1 |
| 20260506133502 | 51 | 163 | 3.5 | 6.1 | 0.00 | 0.00 | 0.00 | 92 | 1020.1 |
| 20260506133225 | 51 | 149 | 3.5 | 6.1 | 0.00 | 0.00 | 0.00 | 92 | 1020.1 |
| 20260506132501 | 51 | 166 | 2.6 | 5.2 | 0.00 | 0.00 | 0.00 | 92 | 1020.1 |
| 20260506131958 | 51 | 141 | 2.6 | 5.2 | 0.00 | 0.00 | 0.00 | 92 | 1020.1 |
| 20260506131459 | 51 | 167 | 2.6 | 5.2 | 0.00 | 0.00 | 0.00 | 92 | 1020.0 |
| 20260506130957 | 51 | 133 | 2.6 | 3.5 | 0.00 | 0.00 | 0.00 | 92 | 1020.0 |
| 20260506130457 | 51 | 156 | 2.6 | 4.3 | 0.00 | 0.00 | 0.00 | 92 | 1020.0 |
| 20260506125958 | 51 | 168 | 2.6 | 4.3 | 0.00 | 0.00 | 0.00 | 92 | 1020.0 |
| 20260506125446 | 51 | 150 | 1.7 | 3.5 | 0.00 | 0.00 | 0.00 | 92 | 1019.9 |
| 20260506124947 | 51 | 164 | 1.7 | 3.5 | 0.00 | 0.00 | 0.00 | 92 | 1019.9 |
| 20260506124448 | 51 | 166 | 1.7 | 3.5 | 0.00 | 0.00 | 0.00 | 92 | 1019.9 |
| 20260506123943 | 51 | 138 | 2.6 | 6.1 | 0.00 | 0.00 | 0.00 | 93 | 1019.9 |
| 20260506123438 | 51 | 164 | 2.6 | 6.1 | 0.00 | 0.00 | 0.00 | 93 | 1019.8 |
| 20260506122930 | 50 | 182 | 2.6 | 6.1 | 0.00 | 0.00 | 0.00 | 93 | 1019.7 |
| 20260506122432 | 50 | 159 | 2.6 | 6.1 | 0.00 | 0.00 | 0.00 | 93 | 1019.7 |
| 20260506121930 | 50 | 186 | 2.6 | 5.2 | 0.00 | 0.00 | 0.00 | 93 | 1019.6 |
| 20260506121423 | 50 | 156 | 2.6 | 5.2 | 0.00 | 0.00 | 0.00 | 93 | 1019.6 |
| 20260506120924 | 49 | 197 | 2.6 | 5.2 | 0.00 | 0.00 | 0.00 | 93 | 1019.5 |
| 20260506120422 | 49 | 229 | 1.7 | 4.3 | 0.00 | 0.00 | 0.00 | 93 | 1019.4 |
| 20260506115921 | 49 | 164 | 2.6 | 4.3 | 0.00 | 0.00 | 0.00 | 93 | 1019.4 |
| 20260506115421 | 49 | 227 | 2.6 | 5.2 | 0.00 | 0.00 | 0.00 | 93 | 1019.4 |
| 20260506114918 | 49 | 176 | 1.7 | 5.2 | 0.00 | 0.00 | 0.00 | 93 | 1019.2 |
| 20260506114418 | 49 | 208 | 1.7 | 4.3 | 0.00 | 0.00 | 0.00 | 93 | 1019.1 |
| 20260506113911 | 49 | 203 | 2.6 | 4.3 | 0.00 | 0.00 | 0.00 | 93 | 1019.0 |
| 20260506113411 | 49 | 221 | 1.7 | 4.3 | 0.00 | 0.00 | 0.00 | 93 | 1019.0 |
| 20260506112912 | 50 | 223 | 2.6 | 5.2 | 0.00 | 0.00 | 0.00 | 93 | 1018.9 |
| 20260506112409 | 49 | 195 | 2.6 | 6.1 | 0.00 | 0.00 | 0.00 | 92 | 1018.8 |
| 20260506111908 | 50 | 192 | 2.6 | 6.1 | 0.00 | 0.00 | 0.00 | 92 | 1018.7 |
| 20260506111627 | 50 | 183 | 2.6 | 5.2 | 0.00 | 0.00 | 0.00 | 92 | 1018.7 |
| 20260506110906 | 50 | 191 | 2.6 | 4.3 | 0.00 | 0.00 | 0.00 | 92 | 1018.6 |
| 20260506110406 | 50 | 176 | 1.7 | 3.5 | 0.00 | 0.00 | 0.00 | 92 | 1018.4 |
| 20260506110126 | 50 | 172 | 1.7 | 2.6 | 0.00 | 0.00 | 0.00 | 92 | 1018.5 |
| 20260506105354 | 50 | 171 | 1.7 | 2.6 | 0.00 | 0.00 | 0.00 | 91 | 1018.3 |
| 20260506104843 | 51 | 171 | 1.7 | 5.2 | 0.00 | 0.00 | 0.00 | 91 | 1018.2 |
| 20260506104341 | 51 | 177 | 2.6 | 5.2 | 0.00 | 0.00 | 0.00 | 91 | 1018.2 |
| 20260506103841 | 51 | 184 | 2.6 | 3.5 | 0.00 | 0.00 | 0.00 | 91 | 1018.2 |
| 20260506103341 | 51 | 167 | 1.7 | 3.5 | 0.00 | 0.00 | 0.00 | 91 | 1018.1 |
| 20260506102839 | 51 | 177 | 0.9 | 2.6 | 0.00 | 0.00 | 0.00 | 90 | 1018.1 |
| 20260506102335 | 51 | 177 | 0.9 | 2.6 | 0.00 | 0.00 | 0.00 | 91 | 1018.0 |
| 20260506101837 | 51 | 175 | 0.9 | 2.6 | 0.00 | 0.00 | 0.00 | 91 | 1017.9 |
| 20260506101331 | 51 | 185 | 1.7 | 3.5 | 0.00 | 0.00 | 0.00 | 91 | 1017.9 |
| 20260506100827 | 51 | 185 | 2.6 | 5.2 | 0.00 | 0.00 | 0.00 | 91 | 1017.9 |
| 20260506100323 | 51 | 173 | 2.6 | 5.2 | 0.00 | 0.00 | 0.00 | 91 | 1017.8 |
| 20260506095822 | 51 | 193 | 2.6 | 5.2 | 0.00 | 0.00 | 0.00 | 91 | 1017.9 |
| 20260506095316 | 51 | 187 | 2.6 | 5.2 | 0.00 | 0.00 | 0.00 | 90 | 1017.9 |
| 20260506094818 | 52 | 175 | 3.5 | 6.1 | 0.00 | 0.00 | 0.00 | 90 | 1017.9 |
| 20260506094535 | 52 | 210 | 2.6 | 7.0 | 0.00 | 0.00 | 0.00 | 90 | 1017.8 |
| 20260506093808 | 52 | 171 | 2.6 | 7.0 | 0.00 | 0.00 | 0.00 | 90 | 1017.8 |
| 20260506093307 | 52 | 191 | 3.5 | 6.1 | 0.00 | 0.00 | 0.00 | 90 | 1017.8 |
| 20260506093029 | 52 | 184 | 3.5 | 6.1 | 0.00 | 0.00 | 0.00 | 90 | 1017.8 |
| 20260506092301 | 52 | 181 | 3.5 | 6.1 | 0.00 | 0.00 | 0.00 | 90 | 1017.7 |
| 20260506091802 | 52 | 175 | 2.6 | 5.2 | 0.00 | 0.00 | 0.00 | 90 | 1017.8 |
| 20260506091300 | 52 | 203 | 1.7 | 5.2 | 0.00 | 0.00 | 0.00 | 90 | 1017.8 |
| 20260506090802 | 52 | 217 | 1.7 | 3.5 | 0.00 | 0.00 | 0.00 | 89 | 1017.8 |
| 20260506090259 | 52 | 206 | 1.7 | 3.5 | 0.00 | 0.00 | 0.00 | 90 | 1017.8 |
| 20260506085800 | 53 | 180 | 0.9 | 3.5 | 0.00 | 0.00 | 0.00 | 89 | 1017.7 |
| 20260506085301 | 53 | 203 | 0.9 | 2.6 | 0.00 | 0.00 | 0.00 | 89 | 1017.7 |
| 20260506085025 | 53 | 193 | 1.7 | 3.5 | 0.00 | 0.00 | 0.00 | 89 | 1017.6 |
| 20260506084252 | 53 | 173 | 1.7 | 3.5 | 0.00 | 0.00 | 0.00 | 89 | 1017.5 |
| 20260506083749 | 53 | 177 | 1.7 | 2.6 | 0.00 | 0.00 | 0.00 | 89 | 1017.5 |
| 20260506083251 | 53 | 193 | 1.7 | 3.5 | 0.00 | 0.00 | 0.00 | 89 | 1017.5 |
| 20260506082744 | 53 | 175 | 1.7 | 3.5 | 0.00 | 0.00 | 0.00 | 89 | 1017.5 |
| 20260506082241 | 53 | 175 | 1.7 | 2.6 | 0.00 | 0.00 | 0.00 | 90 | 1017.5 |
| 20260506081737 | 54 | 198 | 1.7 | 2.6 | 0.00 | 0.00 | 0.00 | 89 | 1017.4 |
| 20260506081240 | 54 | 195 | 1.7 | 2.6 | 0.00 | 0.00 | 0.00 | 89 | 1017.5 |
| 20260506080733 | 54 | 167 | 1.7 | 3.5 | 0.00 | 0.00 | 0.00 | 88 | 1017.4 |
| 20260506080231 | 55 | 166 | 2.6 | 5.2 | 0.00 | 0.00 | 0.00 | 88 | 1017.5 |
| 20260506073147 | 56 | 226 | 0.9 | 2.6 | 0.00 | 0.00 | 0.00 | 85 | 1017.5 |
| 20260506072647 | 57 | 226 | 1.7 | 2.6 | 0.00 | 0.00 | 0.00 | 85 | 1017.5 |
| 20260506072143 | 57 | 248 | 1.7 | 4.3 | 0.00 | 0.00 | 0.00 | 85 | 1017.4 |
| 20260506071644 | 57 | 230 | 1.7 | 4.3 | 0.00 | 0.00 | 0.00 | 85 | 1017.4 |
| 20260506071132 | 57 | 265 | 1.7 | 4.3 | 0.00 | 0.00 | 0.00 | 85 | 1017.3 |
| 20260506070619 | 58 | 241 | 0.9 | 4.3 | 0.00 | 0.00 | 0.00 | 86 | 1017.2 |
| 20260506070331 | 58 | 141 | 0.9 | 2.6 | 0.00 | 0.00 | 0.00 | 87 | 1017.2 |
| 20260506062021 | 58 | 85 | 0.0 | 0.0 | 0.00 | 0.00 | 0.00 | 88 | 1017.0 |
| 20260506061519 | 57 | 85 | 0.0 | 1.7 | 0.00 | 0.00 | 0.00 | 87 | 1016.9 |
| 20260506061019 | 58 | 85 | 0.0 | 1.7 | 0.00 | 0.00 | 0.00 | 87 | 1016.9 |
| 20260506060516 | 58 | 23 | 0.0 | 0.0 | 0.00 | 0.00 | 0.00 | 87 | 1016.7 |
| 20260506060230 | 57 | 23 | 0.0 | 0.0 | 0.00 | 0.00 | 0.00 | 87 | 1016.8 |
| 20260506051408 | 57 | 23 | 0.9 | 1.7 | 0.00 | 0.00 | 0.00 | 86 | 1016.3 |
| 20260506050858 | 57 | 23 | 0.9 | 1.7 | 0.00 | 0.00 | 0.00 | 85 | 1016.3 |
| 20260506050358 | 57 | 23 | 0.9 | 2.6 | 0.00 | 0.00 | 0.00 | 85 | 1016.2 |
| 20260506044824 | 58 | 314 | 0.9 | 2.6 | 0.00 | 0.00 | 0.00 | 84 | 1016.0 |
| 20260506044321 | 58 | 327 | 0.9 | 2.6 | 0.00 | 0.00 | 0.00 | 83 | 1015.9 |
| 20260506043821 | 58 | 292 | 0.9 | 2.6 | 0.00 | 0.00 | 0.00 | 84 | 1015.8 |
| 20260506043544 | 58 | 294 | 0.9 | 2.6 | 0.00 | 0.00 | 0.00 | 83 | 1015.9 |
| 20260506042821 | 58 | 294 | 0.9 | 2.6 | 0.00 | 0.00 | 0.00 | 83 | 1015.7 |
| 20260506042310 | 59 | 294 | 0.9 | 2.6 | 0.00 | 0.00 | 0.00 | 83 | 1015.8 |
| 20260506041755 | 59 | 294 | 0.9 | 2.6 | 0.00 | 0.00 | 0.00 | 83 | 1015.7 |
| 20260506041256 | 59 | 294 | 0.9 | 1.7 | 0.00 | 0.00 | 0.00 | 83 | 1015.8 |
| 20260506040752 | 59 | 294 | 0.9 | 2.6 | 0.00 | 0.00 | 0.00 | 83 | 1015.7 |
| 20260506040507 | 59 | 294 | 0.9 | 2.6 | 0.00 | 0.00 | 0.00 | 82 | 1015.6 |
| 20260506035746 | 59 | 258 | 0.9 | 2.6 | 0.00 | 0.00 | 0.00 | 82 | 1015.6 |
| 20260506035502 | 59 | 260 | 1.7 | 2.6 | 0.00 | 0.00 | 0.00 | 82 | 1015.5 |
| 20260506034745 | 59 | 250 | 0.9 | 2.6 | 0.00 | 0.00 | 0.00 | 83 | 1015.6 |
| 20260506034726 | 59 | 239 | 0.9 | 2.6 | 0.00 | 0.00 | 0.00 | 81 | 1015.4 |
| 20260506034003 | 60 | 240 | 0.9 | 2.6 | 0.00 | 0.00 | 0.00 | 79 | 1015.4 |
| 20260506033236 | 61 | 330 | 0.9 | 2.6 | 0.00 | 0.00 | 0.00 | 78 | 1015.3 |
| 20260506032727 | 61 | 330 | 1.7 | 2.6 | 0.00 | 0.00 | 0.00 | 77 | 1015.3 |
| 20260506032221 | 62 | 337 | 1.7 | 3.5 | 0.00 | 0.00 | 0.00 | 77 | 1015.1 |
| 20260506031719 | 62 | 322 | 1.7 | 3.5 | 0.00 | 0.00 | 0.00 | 77 | 1015.2 |
| 20260506031219 | 62 | 353 | 0.9 | 3.5 | 0.00 | 0.00 | 0.00 | 76 | 1015.2 |
| 20260506030715 | 63 | 15 | 1.7 | 3.5 | 0.00 | 0.00 | 0.00 | 76 | 1015.1 |
| 20260506030435 | 63 | 15 | 1.7 | 3.5 | 0.00 | 0.00 | 0.00 | 75 | 1015.2 |
| 20260506025708 | 63 | 4 | 2.6 | 5.2 | 0.00 | 0.00 | 0.00 | 75 | 1015.1 |
| 20260506025210 | 64 | 346 | 2.6 | 5.2 | 0.00 | 0.00 | 0.00 | 75 | 1015.0 |
| 20260506024709 | 64 | 11 | 2.6 | 6.1 | 0.00 | 0.00 | 0.00 | 75 | 1015.0 |
| 20260506024427 | 64 | 11 | 2.6 | 6.1 | 0.00 | 0.00 | 0.00 | 74 | 1015.0 |
| 20260506023711 | 64 | 22 | 2.6 | 6.1 | 0.00 | 0.00 | 0.00 | 74 | 1015.0 |
| 20260506023210 | 65 | 355 | 2.6 | 6.1 | 0.00 | 0.00 | 0.00 | 74 | 1014.9 |
| 20260506022707 | 65 | 342 | 3.5 | 7.0 | 0.00 | 0.00 | 0.00 | 73 | 1014.7 |
| 20260506022208 | 65 | 7 | 4.3 | 7.8 | 0.00 | 0.00 | 0.00 | 73 | 1014.8 |
| 20260506021933 | 65 | 17 | 3.5 | 7.8 | 0.00 | 0.00 | 0.00 | 73 | 1014.7 |
| 20260506021428 | 65 | 36 | 3.5 | 6.1 | 0.00 | 0.00 | 0.00 | 72 | 1014.7 |
| 20260506020700 | 65 | 15 | 3.5 | 6.1 | 0.00 | 0.00 | 0.00 | 72 | 1014.8 |
| 20260506020158 | 65 | 356 | 2.6 | 6.1 | 0.00 | 0.00 | 0.00 | 71 | 1014.8 |
| 20260506015658 | 66 | 50 | 3.5 | 7.0 | 0.00 | 0.00 | 0.00 | 71 | 1014.7 |
| 20260506015158 | 66 | 16 | 3.5 | 7.0 | 0.00 | 0.00 | 0.00 | 71 | 1014.8 |
| 20260506014700 | 66 | 17 | 3.5 | 7.0 | 0.00 | 0.00 | 0.00 | 70 | 1014.6 |
| 20260506014159 | 66 | 329 | 2.6 | 6.1 | 0.00 | 0.00 | 0.00 | 70 | 1014.6 |
| 20260506013657 | 66 | 36 | 2.6 | 7.0 | 0.00 | 0.00 | 0.00 | 70 | 1014.6 |